Погода в Шушнуре

Россия / Республика Башкортостан     55°53′39″N   54°21′32″E
темп.,
°C
ветер,
м/с
пор.,
м/с
влажн.,
%
обл.,
%
осадки,
мм/ч
давл.,
гПа
погр.,
м
8 марта, пн
пн823:00−16ю349787 0.1 100963
02:00−14ююв4994100 0.0 1006229
05:00−12ююв61295100 0.3 1003398
08:00−10ю71394100 1.7 998699
11:00−6ю81394100 2.6 996834
14:00−2юз111579100 1.2 9951482
17:00−4зюз9157788 1.2 9961052
20:00−7зюз6158517 0.0 1000519
9 марта, вт
вт923:00−12ююз449210 0.0 100266
02:00−11ю1292100 0.0 100021
05:00−9ссв1296100 3.7 100051
08:00−12з4993100 0.8 1003155
11:00−11зюз599360 0.8 1007356
14:00−9зюз469399 0.0 1009402
17:00−8юз359299 0.1 1009431
20:00−13юз239698 0.0 100921
10 марта, ср
ср1023:00−15юз1110099 0.1 100920
02:00−14ссв2296100 0.0 100720
05:00−14ссв3596100 0.0 1006117
08:00−14с61193100 0.1 1005401
11:00−17с81294100 0.3 1005422
14:00−16ссз81387100 0.2 1007491
17:00−16ссз81381100 0.2 1009604
20:00−18ссз61483100 0.0 1011633
11 марта, чт
чт1123:00−19ссз61386100 0.0 1013604
02:00−22ссз51292100 0.0 1013385
05:00−25сз4994100 0.0 1015200
08:00−27сз349773 0.0 101659
11:00−21зсз479668 0.0 1017305
14:00−17зсз579399 0.0 1017414
17:00−14зсз589299 0.1 1016543
20:00−13з51094100 0.2 1016415
12 марта, пт
пт1223:00−12з61292100 0.3 1016418
02:00−10сз41092100 0.1 1017381
05:00−12зсз51092100 0.1 1019321
08:00−17зсз499594 0.0 1022193
11:00−15сз599165 0.0 1024344
14:00−11зсз588626 0.0 1025483
17:00−8зсз597930 0.0 1026630
20:00−11з4989100 0.0 1027222